| time (UTC) | temp F | wind direction | speed MPH | gust MPH | rain 1hr in | rain 24hr in | rain mn in | humidity % | barometer mb |
| 20260507141718 | 60 | 342 | 2.0 | 7.0 | 0.00 | 0.02 | 0.00 | 81 | 1020.1 |
| 20260507141216 | 60 | 9 | 2.0 | 5.0 | 0.00 | 0.02 | 0.00 | 84 | 1020.1 |
| 20260507140716 | 59 | 342 | 2.0 | 6.0 | 0.00 | 0.02 | 0.00 | 86 | 1020.3 |
| 20260507140217 | 58 | 12 | 2.0 | 6.0 | 0.00 | 0.02 | 0.00 | 87 | 1020.3 |
| 20260507135716 | 58 | 331 | 1.0 | 3.0 | 0.00 | 0.02 | 0.00 | 89 | 1020.3 |
| 20260507135216 | 57 | 344 | 1.0 | 3.0 | 0.00 | 0.02 | 0.00 | 90 | 1020.3 |
| 20260507134717 | 56 | 340 | 1.0 | 4.0 | 0.00 | 0.02 | 0.00 | 91 | 1020.3 |
| 20260507134216 | 56 | 330 | 2.0 | 5.0 | 0.00 | 0.02 | 0.00 | 91 | 1020.4 |
| 20260507133711 | 55 | 5 | 2.0 | 5.0 | 0.00 | 0.02 | 0.00 | 92 | 1020.5 |
| 20260507133214 | 55 | 16 | 1.0 | 4.0 | 0.00 | 0.02 | 0.00 | 93 | 1020.4 |
| 20260507132710 | 55 | 345 | 1.0 | 3.0 | 0.00 | 0.02 | 0.00 | 93 | 1020.5 |
| 20260507132210 | 55 | 349 | 1.0 | 3.0 | 0.00 | 0.02 | 0.00 | 93 | 1020.4 |
| 20260507131710 | 54 | 313 | 1.0 | 3.0 | 0.00 | 0.02 | 0.00 | 93 | 1020.4 |
| 20260507131210 | 54 | 323 | 1.0 | 2.0 | 0.00 | 0.02 | 0.00 | 93 | 1020.4 |
| 20260507130710 | 54 | 335 | 1.0 | 3.0 | 0.00 | 0.02 | 0.00 | 93 | 1020.3 |
| 20260507130210 | 54 | 11 | 1.0 | 3.0 | 0.00 | 0.02 | 0.00 | 93 | 1020.3 |
| 20260507125708 | 53 | 5 | 1.0 | 3.0 | 0.00 | 0.02 | 0.00 | 94 | 1020.3 |
| 20260507125205 | 53 | 343 | 0.0 | 2.0 | 0.00 | 0.02 | 0.00 | 94 | 1020.1 |
| 20260507124707 | 53 | 277 | 0.0 | 1.0 | 0.00 | 0.02 | 0.00 | 93 | 1020.0 |
| 20260507124206 | 52 | 277 | 0.0 | 1.0 | 0.00 | 0.02 | 0.00 | 93 | 1020.1 |
| 20260507123706 | 51 | 277 | 0.0 | 1.0 | 0.00 | 0.02 | 0.00 | 93 | 1020.2 |
| 20260507123206 | 51 | 277 | 0.0 | 0.0 | 0.00 | 0.02 | 0.00 | 93 | 1020.0 |
| 20260507123005 | 51 | 277 | 0.0 | 0.0 | 0.00 | 0.02 | 0.00 | 93 | 1020.0 |
| 20260507122207 | 51 | 277 | 0.0 | 0.0 | 0.00 | 0.02 | 0.00 | 93 | 1019.9 |
| 20260507121706 | 51 | 277 | 0.0 | 0.0 | 0.00 | 0.02 | 0.00 | 93 | 1019.8 |
| 20260507121206 | 51 | 277 | 0.0 | 0.0 | 0.00 | 0.02 | 0.00 | 93 | 1019.8 |
| 20260507120705 | 50 | 277 | 0.0 | 0.0 | 0.00 | 0.02 | 0.00 | 92 | 1019.7 |
| 20260507120205 | 50 | 277 | 0.0 | 0.0 | 0.00 | 0.02 | 0.00 | 92 | 1019.5 |
| 20260507115705 | 50 | 277 | 0.0 | 0.0 | 0.00 | 0.02 | 0.00 | 92 | 1019.6 |
| 20260507115500 | 50 | 277 | 0.0 | 0.0 | 0.00 | 0.02 | 0.00 | 92 | 1019.6 |
| 20260507114755 | 50 | 277 | 0.0 | 0.0 | 0.00 | 0.02 | 0.00 | 92 | 1019.6 |
| 20260507114205 | 50 | 277 | 0.0 | 0.0 | 0.00 | 0.02 | 0.00 | 92 | 1019.5 |
| 20260507113704 | 50 | 277 | 0.0 | 0.0 | 0.00 | 0.02 | 0.00 | 92 | 1019.5 |
| 20260507113201 | 51 | 277 | 0.0 | 0.0 | 0.00 | 0.02 | 0.00 | 92 | 1019.5 |
| 20260507112701 | 51 | 277 | 0.0 | 0.0 | 0.00 | 0.02 | 0.00 | 92 | 1019.4 |
| 20260507112202 | 51 | 277 | 0.0 | 0.0 | 0.00 | 0.02 | 0.00 | 92 | 1019.3 |
| 20260507112013 | 51 | 277 | 0.0 | 0.0 | 0.00 | 0.02 | 0.00 | 92 | 1019.3 |
| 20260507111202 | 51 | 277 | 0.0 | 0.0 | 0.00 | 0.02 | 0.00 | 92 | 1019.2 |
| 20260507110702 | 51 | 271 | 0.0 | 0.0 | 0.00 | 0.02 | 0.00 | 92 | 1019.1 |
| 20260507110202 | 51 | 281 | 0.0 | 0.0 | 0.00 | 0.02 | 0.00 | 91 | 1019.3 |
| 20260507105702 | 51 | 277 | 0.0 | 1.0 | 0.00 | 0.02 | 0.00 | 91 | 1019.2 |
| 20260507105503 | 51 | 277 | 0.0 | 1.0 | 0.00 | 0.02 | 0.00 | 91 | 1019.1 |
| 20260507104702 | 51 | 277 | 0.0 | 1.0 | 0.00 | 0.02 | 0.00 | 91 | 1019.1 |
| 20260507104202 | 51 | 277 | 0.0 | 2.0 | 0.00 | 0.02 | 0.00 | 91 | 1019.0 |
| 20260507103702 | 51 | 277 | 0.0 | 2.0 | 0.00 | 0.02 | 0.00 | 91 | 1018.9 |
| 20260507103202 | 51 | 350 | 0.0 | 0.0 | 0.00 | 0.02 | 0.00 | 91 | 1018.8 |
| 20260507103000 | 51 | 18 | 0.0 | 0.0 | 0.00 | 0.02 | 0.00 | 91 | 1018.8 |
| 20260507102201 | 51 | 18 | 0.0 | 0.0 | 0.00 | 0.02 | 0.00 | 91 | 1018.7 |
| 20260507101701 | 51 | 18 | 0.0 | 0.0 | 0.00 | 0.02 | 0.00 | 91 | 1018.6 |
| 20260507101204 | 52 | 18 | 0.0 | 0.0 | 0.00 | 0.02 | 0.00 | 90 | 1018.4 |
| 20260507100702 | 52 | 18 | 0.0 | 0.0 | 0.00 | 0.02 | 0.00 | 91 | 1018.2 |
| 20260507100202 | 52 | 18 | 0.0 | 1.0 | 0.00 | 0.02 | 0.00 | 90 | 1018.1 |
| 20260507095956 | 52 | 18 | 0.0 | 2.0 | 0.00 | 0.02 | 0.00 | 90 | 1018.1 |
| 20260507095202 | 52 | 18 | 0.0 | 2.0 | 0.00 | 0.02 | 0.00 | 90 | 1017.9 |
| 20260507094702 | 52 | 5 | 0.0 | 0.0 | 0.00 | 0.02 | 0.00 | 90 | 1017.9 |
| 20260507094201 | 52 | 5 | 0.0 | 0.0 | 0.00 | 0.02 | 0.00 | 90 | 1018.0 |
| 20260507093701 | 52 | 5 | 0.0 | 2.0 | 0.00 | 0.02 | 0.00 | 90 | 1018.1 |
| 20260507093202 | 52 | 5 | 1.0 | 2.0 | 0.00 | 0.02 | 0.00 | 90 | 1017.9 |
| 20260507092701 | 53 | 5 | 1.0 | 3.0 | 0.00 | 0.02 | 0.00 | 90 | 1017.9 |
| 20260507092201 | 53 | 5 | 1.0 | 3.0 | 0.00 | 0.02 | 0.00 | 89 | 1017.8 |
| 20260507091702 | 53 | 355 | 1.0 | 3.0 | 0.00 | 0.02 | 0.00 | 89 | 1017.8 |
| 20260507091202 | 53 | 339 | 0.0 | 2.0 | 0.00 | 0.02 | 0.00 | 89 | 1017.8 |
| 20260507090702 | 53 | 355 | 0.0 | 2.0 | 0.00 | 0.02 | 0.00 | 89 | 1017.8 |
| 20260507090202 | 53 | 355 | 0.0 | 2.0 | 0.00 | 0.02 | 0.00 | 89 | 1017.7 |
| 20260507085700 | 53 | 355 | 0.0 | 2.0 | 0.00 | 0.02 | 0.00 | 89 | 1017.8 |
| 20260507085200 | 53 | 355 | 0.0 | 2.0 | 0.00 | 0.02 | 0.00 | 88 | 1017.8 |
| 20260507084659 | 53 | 355 | 0.0 | 1.0 | 0.00 | 0.02 | 0.00 | 88 | 1017.9 |
| 20260507084201 | 53 | 355 | 0.0 | 2.0 | 0.00 | 0.02 | 0.00 | 88 | 1017.8 |
| 20260507083700 | 53 | 355 | 0.0 | 2.0 | 0.00 | 0.02 | 0.00 | 88 | 1017.8 |
| 20260507083449 | 53 | 351 | 0.0 | 1.0 | 0.00 | 0.02 | 0.00 | 88 | 1017.8 |
| 20260507082701 | 54 | 351 | 0.0 | 2.0 | 0.00 | 0.02 | 0.00 | 88 | 1017.8 |
| 20260507082156 | 54 | 351 | 1.0 | 3.0 | 0.00 | 0.02 | 0.00 | 88 | 1017.8 |
| 20260507081655 | 54 | 355 | 1.0 | 3.0 | 0.00 | 0.02 | 0.00 | 87 | 1017.7 |
| 20260507081154 | 54 | 342 | 1.0 | 2.0 | 0.00 | 0.02 | 0.00 | 87 | 1017.9 |
| 20260507080654 | 54 | 341 | 1.0 | 3.0 | 0.00 | 0.02 | 0.00 | 87 | 1017.7 |
| 20260507080153 | 54 | 348 | 1.0 | 3.0 | 0.00 | 0.02 | 0.00 | 87 | 1017.6 |
| 20260507075647 | 55 | 325 | 1.0 | 5.0 | 0.00 | 0.02 | 0.00 | 87 | 1017.6 |
| 20260507075148 | 55 | 5 | 2.0 | 5.0 | 0.00 | 0.02 | 0.00 | 87 | 1017.5 |
| 20260507074645 | 55 | 338 | 2.0 | 5.0 | 0.00 | 0.02 | 0.00 | 87 | 1017.4 |
| 20260507074146 | 55 | 11 | 2.0 | 5.0 | 0.00 | 0.02 | 0.00 | 87 | 1017.3 |
| 20260507073644 | 55 | 5 | 2.0 | 5.0 | 0.00 | 0.02 | 0.00 | 86 | 1017.3 |
| 20260507073439 | 55 | 355 | 2.0 | 4.0 | 0.00 | 0.02 | 0.00 | 86 | 1017.4 |
| 20260507072940 | 55 | 32 | 2.0 | 5.0 | 0.00 | 0.02 | 0.00 | 86 | 1017.5 |
| 20260507072142 | 55 | 10 | 2.0 | 5.0 | 0.00 | 0.02 | 0.00 | 86 | 1017.5 |
| 20260507071641 | 55 | 355 | 2.0 | 3.0 | 0.00 | 0.02 | 0.00 | 86 | 1017.5 |
| 20260507071142 | 55 | 335 | 2.0 | 3.0 | 0.00 | 0.02 | 0.00 | 85 | 1017.6 |
| 20260507070642 | 56 | 350 | 2.0 | 4.0 | 0.00 | 0.02 | 0.00 | 85 | 1017.6 |
| 20260507070141 | 56 | 18 | 2.0 | 4.0 | 0.00 | 0.02 | 0.00 | 85 | 1017.7 |
| 20260507065640 | 56 | 5 | 2.0 | 3.0 | 0.00 | 0.02 | 0.00 | 85 | 1017.6 |
| 20260507065233 | 56 | 355 | 2.0 | 3.0 | 0.00 | 0.02 | 0.00 | 84 | 1017.7 |
| 20260507065216 | 56 | 24 | 2.0 | 3.0 | 0.00 | 0.02 | 0.00 | 85 | 1017.5 |
| 20260507064131 | 56 | 11 | 1.0 | 3.0 | 0.00 | 0.02 | 0.00 | 84 | 1017.4 |
| 20260507063627 | 56 | 327 | 1.0 | 3.0 | 0.00 | 0.02 | 0.00 | 83 | 1017.4 |
| 20260507063120 | 56 | 12 | 1.0 | 3.0 | 0.00 | 0.02 | 0.00 | 83 | 1017.4 |
| 20260507062918 | 56 | 22 | 2.0 | 3.0 | 0.00 | 0.02 | 0.00 | 83 | 1017.2 |
| 20260507062120 | 56 | 14 | 1.0 | 3.0 | 0.00 | 0.02 | 0.00 | 83 | 1017.1 |
| 20260507061620 | 56 | 16 | 1.0 | 3.0 | 0.00 | 0.02 | 0.00 | 83 | 1017.2 |
| 20260507061429 | 56 | 26 | 1.0 | 4.0 | 0.00 | 0.02 | 0.00 | 82 | 1017.0 |
| 20260507060620 | 56 | 348 | 1.0 | 4.0 | 0.00 | 0.02 | 0.00 | 82 | 1017.1 |
| 20260507060120 | 56 | 29 | 1.0 | 2.0 | 0.00 | 0.02 | 0.00 | 82 | 1017.1 |
| 20260507055621 | 56 | 33 | 1.0 | 4.0 | 0.00 | 0.02 | 0.00 | 82 | 1016.9 |
| 20260507055120 | 56 | 34 | 1.0 | 4.0 | 0.00 | 0.02 | 0.00 | 82 | 1016.9 |
| 20260507054916 | 57 | 355 | 1.0 | 3.0 | 0.00 | 0.02 | 0.00 | 81 | 1016.9 |
| 20260507054119 | 57 | 32 | 1.0 | 3.0 | 0.00 | 0.02 | 0.00 | 81 | 1017.0 |
| 20260507053620 | 57 | 18 | 1.0 | 4.0 | 0.00 | 0.02 | 0.00 | 81 | 1016.8 |
| 20260507053413 | 57 | 5 | 1.0 | 4.0 | 0.00 | 0.02 | 0.00 | 80 | 1016.8 |
| 20260507052615 | 57 | 20 | 1.0 | 4.0 | 0.00 | 0.02 | 0.00 | 80 | 1016.8 |
| 20260507052110 | 57 | 13 | 1.0 | 3.0 | 0.00 | 0.02 | 0.00 | 80 | 1016.8 |
| 20260507051603 | 57 | 13 | 2.0 | 4.0 | 0.00 | 0.02 | 0.00 | 80 | 1017.0 |
| 20260507051058 | 57 | 349 | 2.0 | 4.0 | 0.00 | 0.02 | 0.00 | 79 | 1017.0 |
| 20260507050558 | 58 | 51 | 1.0 | 4.0 | 0.00 | 0.02 | 0.00 | 79 | 1017.0 |
| 20260507050058 | 58 | 340 | 1.0 | 4.0 | 0.00 | 0.02 | 0.00 | 79 | 1017.0 |
| 20260507045554 | 58 | 49 | 1.0 | 3.0 | 0.00 | 0.02 | 0.02 | 78 | 1017.0 |
| 20260507045057 | 58 | 344 | 2.0 | 5.0 | 0.00 | 0.02 | 0.02 | 78 | 1017.2 |
| 20260507044555 | 58 | 42 | 2.0 | 5.0 | 0.00 | 0.02 | 0.02 | 77 | 1017.1 |
| 20260507044055 | 58 | 34 | 2.0 | 5.0 | 0.00 | 0.02 | 0.02 | 77 | 1017.0 |
| 20260507043553 | 58 | 34 | 3.0 | 5.0 | 0.00 | 0.02 | 0.02 | 77 | 1017.1 |
| 20260507043053 | 58 | 355 | 2.0 | 5.0 | 0.00 | 0.02 | 0.02 | 76 | 1017.2 |
| 20260507042650 | 59 | 83 | 3.0 | 9.0 | 0.00 | 0.02 | 0.02 | 75 | 1017.3 |
| 20260507042631 | 59 | 348 | 2.0 | 6.0 | 0.00 | 0.02 | 0.02 | 75 | 1017.3 |
| 20260507041842 | 59 | 49 | 3.0 | 9.0 | 0.00 | 0.02 | 0.02 | 74 | 1017.3 |
| 20260507041051 | 59 | 320 | 2.0 | 8.0 | 0.00 | 0.02 | 0.02 | 74 | 1017.4 |
| 20260507040550 | 59 | 57 | 3.0 | 8.0 | 0.00 | 0.02 | 0.02 | 74 | 1017.3 |
| 20260507040049 | 59 | 355 | 4.0 | 10.0 | 0.00 | 0.02 | 0.02 | 73 | 1017.3 |
| 20260507035844 | 59 | 343 | 4.0 | 10.0 | 0.00 | 0.02 | 0.02 | 73 | 1017.4 |
| 20260507035046 | 60 | 11 | 4.0 | 8.0 | 0.00 | 0.02 | 0.02 | 73 | 1017.5 |
| 20260507034547 | 60 | 40 | 3.0 | 8.0 | 0.00 | 0.02 | 0.02 | 73 | 1017.5 |
| 20260507034051 | 60 | 30 | 3.0 | 10.0 | 0.00 | 0.02 | 0.02 | 73 | 1017.4 |
| 20260507033546 | 60 | 37 | 4.0 | 11.0 | 0.00 | 0.02 | 0.02 | 73 | 1017.3 |
| 20260507033047 | 60 | 43 | 5.0 | 11.0 | 0.00 | 0.02 | 0.02 | 73 | 1017.3 |
| 20260507032548 | 60 | 15 | 5.0 | 11.0 | 0.00 | 0.02 | 0.02 | 73 | 1017.2 |
| 20260507032049 | 60 | 311 | 4.0 | 8.0 | 0.00 | 0.02 | 0.02 | 74 | 1017.4 |
| 20260507031546 | 60 | 5 | 3.0 | 8.0 | 0.00 | 0.02 | 0.02 | 74 | 1017.4 |
| 20260507031047 | 60 | 9 | 4.0 | 8.0 | 0.00 | 0.02 | 0.02 | 74 | 1017.4 |
| 20260507030545 | 60 | 11 | 4.0 | 8.0 | 0.00 | 0.02 | 0.02 | 74 | 1017.2 |
| 20260507030045 | 60 | 10 | 4.0 | 10.0 | 0.00 | 0.02 | 0.02 | 73 | 1017.0 |
| 20260507025838 | 60 | 9 | 4.0 | 10.0 | 0.00 | 0.02 | 0.02 | 73 | 1017.0 |
| 20260507025042 | 60 | 355 | 4.0 | 9.0 | 0.00 | 0.02 | 0.02 | 73 | 1016.9 |
| 20260507024543 | 60 | 11 | 5.0 | 10.0 | 0.00 | 0.02 | 0.02 | 73 | 1016.8 |
| 20260507024036 | 60 | 11 | 5.0 | 11.0 | 0.00 | 0.02 | 0.02 | 73 | 1016.8 |
| 20260507023825 | 60 | 325 | 5.0 | 11.0 | 0.00 | 0.02 | 0.02 | 73 | 1016.8 |
| 20260507023031 | 60 | 355 | 5.0 | 11.0 | 0.00 | 0.02 | 0.02 | 73 | 1016.6 |
| 20260507022824 | 60 | 333 | 6.0 | 12.0 | 0.00 | 0.02 | 0.02 | 74 | 1016.5 |
| 20260507022029 | 61 | 338 | 6.0 | 13.0 | 0.00 | 0.02 | 0.02 | 74 | 1016.3 |
| 20260507021528 | 61 | 323 | 5.0 | 13.0 | 0.00 | 0.02 | 0.02 | 75 | 1016.3 |
| 20260507021029 | 61 | 46 | 4.0 | 9.0 | 0.00 | 0.02 | 0.02 | 76 | 1016.3 |
| 20260507020528 | 61 | 5 | 3.0 | 8.0 | 0.00 | 0.02 | 0.02 | 76 | 1016.2 |
| 20260507020029 | 61 | 355 | 2.0 | 6.0 | 0.00 | 0.02 | 0.02 | 76 | 1015.9 |
| 20260507015530 | 61 | 355 | 3.0 | 6.0 | 0.00 | 0.02 | 0.02 | 77 | 1015.8 |
| 20260507015032 | 61 | 38 | 3.0 | 9.0 | 0.00 | 0.02 | 0.02 | 76 | 1015.6 |
| 20260507014826 | 61 | 313 | 3.0 | 9.0 | 0.00 | 0.02 | 0.02 | 77 | 1015.6 |
| 20260507014029 | 61 | 32 | 2.0 | 7.0 | 0.00 | 0.02 | 0.02 | 77 | 1015.4 |
| 20260507013529 | 61 | 348 | 3.0 | 8.0 | 0.00 | 0.02 | 0.02 | 77 | 1015.2 |
| 20260507013101 | 61 | 24 | 3.0 | 8.0 | 0.00 | 0.02 | 0.02 | 77 | 1015.0 |
| 20260507012028 | 62 | 29 | 2.0 | 8.0 | 0.00 | 0.02 | 0.02 | 77 | 1014.8 |
| 20260507011528 | 62 | 347 | 3.0 | 8.0 | 0.00 | 0.02 | 0.02 | 77 | 1014.8 |
| 20260507011029 | 62 | 24 | 2.0 | 9.0 | 0.00 | 0.02 | 0.02 | 77 | 1014.8 |
| 20260507010527 | 62 | 355 | 3.0 | 9.0 | 0.00 | 0.02 | 0.02 | 77 | 1014.7 |
| 20260507010027 | 62 | 14 | 3.0 | 8.0 | 0.00 | 0.02 | 0.02 | 77 | 1014.7 |
| 20260507005527 | 62 | 302 | 3.0 | 10.0 | 0.00 | 0.02 | 0.02 | 77 | 1014.6 |
| 20260507005028 | 62 | 26 | 3.0 | 10.0 | 0.00 | 0.02 | 0.02 | 76 | 1014.6 |
| 20260507004527 | 62 | 43 | 2.0 | 7.0 | 0.00 | 0.02 | 0.02 | 76 | 1014.6 |
| 20260507004319 | 62 | 28 | 3.0 | 8.0 | 0.00 | 0.02 | 0.02 | 76 | 1014.5 |
| 20260507003526 | 62 | 11 | 3.0 | 8.0 | 0.00 | 0.02 | 0.02 | 76 | 1014.5 |
| 20260507003026 | 62 | 28 | 3.0 | 9.0 | 0.00 | 0.02 | 0.02 | 75 | 1014.4 |
| 20260507002526 | 62 | 49 | 3.0 | 9.0 | 0.00 | 0.02 | 0.02 | 75 | 1014.4 |
| 20260507002020 | 62 | 355 | 3.0 | 8.0 | 0.00 | 0.02 | 0.02 | 75 | 1014.3 |
| 20260507001514 | 62 | 51 | 3.0 | 8.0 | 0.00 | 0.02 | 0.02 | 74 | 1014.1 |
| 20260507001012 | 63 | 69 | 3.0 | 8.0 | 0.00 | 0.02 | 0.02 | 74 | 1014.2 |
| 20260507000513 | 63 | 44 | 3.0 | 8.0 | 0.00 | 0.02 | 0.02 | 74 | 1014.2 |
| 20260507000016 | 63 | 5 | 3.0 | 8.0 | 0.00 | 0.02 | 0.02 | 73 | 1013.9 |
| 20260506235514 | 63 | 355 | 3.0 | 9.0 | 0.00 | 0.02 | 0.02 | 73 | 1014.1 |
| 20260506235307 | 63 | 24 | 3.0 | 9.0 | 0.00 | 0.02 | 0.02 | 72 | 1014.0 |
| 20260506234512 | 63 | 51 | 3.0 | 9.0 | 0.00 | 0.02 | 0.02 | 72 | 1013.9 |
| 20260506234012 | 64 | 355 | 3.0 | 8.0 | 0.00 | 0.02 | 0.02 | 72 | 1013.9 |
| 20260506233511 | 64 | 350 | 4.0 | 9.0 | 0.00 | 0.02 | 0.02 | 72 | 1013.9 |
| 20260506233011 | 64 | 328 | 3.0 | 9.0 | 0.00 | 0.02 | 0.02 | 71 | 1013.8 |
| 20260506232509 | 64 | 350 | 3.0 | 8.0 | 0.00 | 0.02 | 0.02 | 71 | 1013.7 |
| 20260506232008 | 64 | 0 | 3.0 | 8.0 | 0.00 | 0.02 | 0.02 | 70 | 1013.6 |
| 20260506231509 | 64 | 355 | 3.0 | 8.0 | 0.00 | 0.02 | 0.02 | 70 | 1013.6 |
| 20260506231305 | 65 | 5 | 3.0 | 8.0 | 0.00 | 0.02 | 0.02 | 70 | 1013.6 |
| 20260506230502 | 65 | 340 | 4.0 | 9.0 | 0.00 | 0.02 | 0.02 | 69 | 1013.6 |
| 20260506225957 | 65 | 317 | 4.0 | 9.0 | 0.00 | 0.02 | 0.02 | 69 | 1013.5 |
| 20260506225457 | 65 | 57 | 3.0 | 10.0 | 0.00 | 0.02 | 0.02 | 70 | 1013.6 |
| 20260506224957 | 65 | 55 | 3.0 | 10.0 | 0.00 | 0.02 | 0.02 | 70 | 1013.7 |
| 20260506224753 | 65 | 5 | 3.0 | 10.0 | 0.00 | 0.02 | 0.02 | 70 | 1013.6 |
| 20260506224254 | 65 | 343 | 3.0 | 10.0 | 0.00 | 0.02 | 0.02 | 70 | 1013.5 |
| 20260506223456 | 65 | 319 | 3.0 | 9.0 | 0.00 | 0.02 | 0.02 | 70 | 1013.5 |
| 20260506222956 | 65 | 31 | 3.0 | 9.0 | 0.00 | 0.02 | 0.02 | 70 | 1013.5 |
| 20260506222456 | 65 | 31 | 4.0 | 10.0 | 0.00 | 0.02 | 0.02 | 69 | 1013.6 |
| 20260506221956 | 65 | 72 | 3.0 | 10.0 | 0.00 | 0.02 | 0.02 | 70 | 1013.5 |
| 20260506221457 | 65 | 321 | 2.0 | 8.0 | 0.00 | 0.02 | 0.02 | 70 | 1013.5 |
| 20260506220956 | 64 | 315 | 3.0 | 8.0 | 0.00 | 0.02 | 0.02 | 70 | 1013.5 |
| 20260506220500 | 64 | 333 | 3.0 | 8.0 | 0.00 | 0.02 | 0.02 | 70 | 1013.5 |
| 20260506215956 | 64 | 350 | 4.0 | 10.0 | 0.00 | 0.02 | 0.02 | 70 | 1013.4 |
| 20260506215749 | 64 | 17 | 4.0 | 11.0 | 0.00 | 0.02 | 0.02 | 70 | 1013.3 |
| 20260506214957 | 64 | 5 | 5.0 | 11.0 | 0.00 | 0.02 | 0.02 | 71 | 1013.1 |
| 20260506214457 | 63 | 336 | 4.0 | 11.0 | 0.00 | 0.02 | 0.02 | 71 | 1013.3 |
| 20260506213956 | 63 | 345 | 4.0 | 11.0 | 0.00 | 0.02 | 0.02 | 71 | 1013.3 |
| 20260506213502 | 63 | 328 | 4.0 | 11.0 | 0.00 | 0.02 | 0.02 | 71 | 1013.5 |
| 20260506212956 | 63 | 9 | 4.0 | 11.0 | 0.00 | 0.02 | 0.02 | 71 | 1013.5 |
| 20260506212454 | 63 | 18 | 3.0 | 6.0 | 0.00 | 0.02 | 0.02 | 71 | 1013.6 |
| 20260506211955 | 63 | 0 | 3.0 | 7.0 | 0.00 | 0.02 | 0.02 | 71 | 1013.8 |
| 20260506211454 | 63 | 76 | 4.0 | 9.0 | 0.00 | 0.02 | 0.02 | 70 | 1013.7 |
| 20260506210952 | 63 | 346 | 4.0 | 10.0 | 0.00 | 0.02 | 0.02 | 70 | 1013.6 |
| 20260506210745 | 63 | 24 | 3.0 | 10.0 | 0.00 | 0.02 | 0.02 | 71 | 1013.5 |
| 20260506205946 | 63 | 28 | 4.0 | 9.0 | 0.00 | 0.02 | 0.02 | 71 | 1013.5 |
| 20260506205537 | 63 | 13 | 4.0 | 8.0 | 0.00 | 0.02 | 0.02 | 70 | 1013.5 |
| 20260506205522 | 63 | 20 | 4.0 | 9.0 | 0.00 | 0.02 | 0.02 | 71 | 1013.6 |
| 20260506204730 | 63 | 315 | 3.0 | 8.0 | 0.00 | 0.02 | 0.02 | 69 | 1013.8 |
| 20260506203944 | 64 | 47 | 4.0 | 8.0 | 0.00 | 0.02 | 0.02 | 69 | 1013.8 |
| 20260506203737 | 63 | 5 | 4.0 | 9.0 | 0.00 | 0.02 | 0.02 | 70 | 1013.7 |
| 20260506202944 | 63 | 28 | 3.0 | 10.0 | 0.00 | 0.02 | 0.02 | 70 | 1013.6 |
| 20260506202445 | 63 | 355 | 4.0 | 10.0 | 0.00 | 0.02 | 0.02 | 70 | 1013.9 |
| 20260506201944 | 63 | 333 | 4.0 | 10.0 | 0.00 | 0.02 | 0.02 | 70 | 1013.9 |
| 20260506201445 | 62 | 336 | 3.0 | 8.0 | 0.00 | 0.02 | 0.02 | 72 | 1013.9 |
| 20260506200944 | 62 | 289 | 4.0 | 8.0 | 0.00 | 0.02 | 0.02 | 72 | 1014.2 |
| 20260506200444 | 62 | 355 | 3.0 | 8.0 | 0.00 | 0.02 | 0.02 | 72 | 1014.4 |
| 20260506195944 | 61 | 293 | 3.0 | 7.0 | 0.00 | 0.02 | 0.02 | 73 | 1014.2 |
| 20260506195444 | 61 | 5 | 3.0 | 8.0 | 0.00 | 0.02 | 0.02 | 72 | 1014.4 |
| 20260506194938 | 61 | 321 | 2.0 | 8.0 | 0.00 | 0.02 | 0.02 | 72 | 1014.5 |
| 20260506194439 | 61 | 11 | 2.0 | 9.0 | 0.00 | 0.02 | 0.02 | 73 | 1014.9 |
| 20260506193938 | 61 | 350 | 3.0 | 9.0 | 0.00 | 0.02 | 0.02 | 72 | 1014.7 |
| 20260506193441 | 61 | 313 | 3.0 | 9.0 | 0.00 | 0.02 | 0.02 | 73 | 1014.6 |
| 20260506192939 | 61 | 32 | 4.0 | 9.0 | 0.00 | 0.02 | 0.02 | 74 | 1014.6 |
| 20260506192439 | 60 | 355 | 4.0 | 11.0 | 0.00 | 0.02 | 0.02 | 74 | 1014.6 |
| 20260506191938 | 60 | 36 | 4.0 | 11.0 | 0.00 | 0.02 | 0.02 | 74 | 1014.6 |
| 20260506191509 | 60 | 30 | 3.0 | 8.0 | 0.00 | 0.02 | 0.02 | 75 | 1014.7 |
| 20260506190939 | 60 | 26 | 3.0 | 8.0 | 0.00 | 0.02 | 0.02 | 74 | 1014.6 |
| 20260506190436 | 60 | 33 | 3.0 | 9.0 | 0.00 | 0.02 | 0.02 | 74 | 1014.7 |
| 20260506185938 | 60 | 348 | 3.0 | 10.0 | 0.00 | 0.02 | 0.02 | 74 | 1014.7 |
| 20260506185531 | 60 | 36 | 5.0 | 10.0 | 0.00 | 0.02 | 0.02 | 74 | 1014.1 |
| 20260506185513 | 60 | 327 | 4.0 | 10.0 | 0.00 | 0.02 | 0.02 | 73 | 1014.7 |
| 20260506184735 | 60 | 290 | 6.0 | 13.0 | 0.00 | 0.02 | 0.02 | 75 | 1013.6 |
| 20260506183936 | 60 | 24 | 6.0 | 14.0 | 0.00 | 0.02 | 0.02 | 74 | 1013.5 |
| 20260506183437 | 60 | 323 | 7.0 | 15.0 | 0.00 | 0.02 | 0.02 | 74 | 1013.5 |
| 20260506182936 | 60 | 351 | 7.0 | 15.0 | 0.00 | 0.02 | 0.02 | 74 | 1013.5 |
| 20260506182437 | 60 | 13 | 6.0 | 15.0 | 0.00 | 0.02 | 0.02 | 75 | 1013.4 |
| 20260506181936 | 59 | 345 | 5.0 | 12.0 | 0.00 | 0.02 | 0.02 | 78 | 1013.2 |
| 20260506181436 | 58 | 24 | 5.0 | 12.0 | 0.00 | 0.02 | 0.02 | 78 | 1013.5 |
| 20260506180936 | 58 | 342 | 6.0 | 12.0 | 0.00 | 0.02 | 0.02 | 79 | 1013.8 |
| 20260506180430 | 57 | 295 | 5.0 | 12.0 | 0.00 | 0.02 | 0.02 | 79 | 1013.8 |
| 20260506175930 | 57 | 55 | 5.0 | 13.0 | 0.00 | 0.02 | 0.02 | 81 | 1013.9 |
| 20260506175430 | 57 | 339 | 5.0 | 13.0 | 0.00 | 0.02 | 0.02 | 81 | 1013.9 |
| 20260506174934 | 56 | 68 | 5.0 | 14.0 | 0.00 | 0.02 | 0.02 | 82 | 1013.7 |
| 20260506174717 | 56 | 30 | 6.0 | 14.0 | 0.00 | 0.02 | 0.02 | 82 | 1013.8 |
| 20260506173931 | 56 | 5 | 7.0 | 14.0 | 0.00 | 0.02 | 0.02 | 82 | 1013.7 |
| 20260506173430 | 56 | 44 | 7.0 | 13.0 | 0.00 | 0.02 | 0.02 | 82 | 1013.6 |
| 20260506172932 | 56 | 323 | 6.0 | 13.0 | 0.00 | 0.02 | 0.02 | 83 | 1013.7 |
| 20260506172431 | 56 | 22 | 5.0 | 11.0 | 0.00 | 0.02 | 0.02 | 84 | 1013.9 |
| 20260506171932 | 55 | 351 | 6.0 | 14.0 | 0.00 | 0.02 | 0.02 | 84 | 1014.1 |
| 20260506171431 | 55 | 21 | 7.0 | 14.0 | 0.00 | 0.02 | 0.02 | 84 | 1014.1 |
| 20260506170931 | 55 | 33 | 7.0 | 14.0 | 0.00 | 0.02 | 0.02 | 84 | 1014.1 |
| 20260506170432 | 55 | 348 | 6.0 | 14.0 | 0.00 | 0.02 | 0.02 | 85 | 1014.4 |
| 20260506165932 | 55 | 20 | 6.0 | 14.0 | 0.00 | 0.02 | 0.02 | 86 | 1014.3 |
| 20260506165430 | 55 | 52 | 6.0 | 12.0 | 0.00 | 0.02 | 0.02 | 86 | 1014.4 |
| 20260506164931 | 55 | 9 | 5.0 | 12.0 | 0.00 | 0.02 | 0.02 | 87 | 1014.7 |
| 20260506164730 | 54 | 348 | 5.0 | 10.0 | 0.01 | 0.02 | 0.02 | 87 | 1015.0 |
| 20260506163928 | 54 | 27 | 5.0 | 12.0 | 0.01 | 0.02 | 0.02 | 87 | 1015.2 |
| 20260506163428 | 55 | 42 | 4.0 | 12.0 | 0.02 | 0.02 | 0.02 | 87 | 1015.3 |
| 20260506162927 | 55 | 28 | 2.0 | 9.0 | 0.02 | 0.02 | 0.02 | 88 | 1015.5 |
| 20260506162426 | 55 | 325 | 2.0 | 8.0 | 0.02 | 0.02 | 0.02 | 88 | 1015.6 |
| 20260506161926 | 55 | 34 | 5.0 | 11.0 | 0.02 | 0.02 | 0.02 | 88 | 1015.1 |
| 20260506161427 | 55 | 34 | 7.0 | 14.0 | 0.02 | 0.02 | 0.02 | 89 | 1014.6 |
| 20260506160926 | 55 | 338 | 7.0 | 14.0 | 0.02 | 0.02 | 0.02 | 89 | 1013.7 |
| 20260506160426 | 55 | 0 | 5.0 | 15.0 | 0.02 | 0.02 | 0.02 | 89 | 1013.9 |
| 20260506155926 | 55 | 0 | 5.0 | 15.0 | 0.02 | 0.02 | 0.02 | 89 | 1013.9 |
| 20260506155427 | 55 | 15 | 5.0 | 13.0 | 0.02 | 0.02 | 0.02 | 89 | 1013.9 |
| 20260506154927 | 55 | 37 | 4.0 | 10.0 | 0.02 | 0.02 | 0.02 | 89 | 1014.0 |
| 20260506154426 | 54 | 9 | 4.0 | 8.0 | 0.01 | 0.01 | 0.01 | 87 | 1014.4 |
| 20260506153929 | 54 | 331 | 4.0 | 8.0 | 0.01 | 0.01 | 0.01 | 87 | 1014.8 |
| 20260506153716 | 54 | 355 | 3.0 | 8.0 | 0.00 | 0.00 | 0.00 | 86 | 1015.4 |
| 20260506152926 | 54 | 309 | 3.0 | 8.0 | 0.00 | 0.00 | 0.00 | 86 | 1016.5 |
| 20260506152426 | 54 | 323 | 2.0 | 5.0 | 0.00 | 0.00 | 0.00 | 86 | 1016.0 |
| 20260506151926 | 54 | 10 | 3.0 | 7.0 | 0.00 | 0.00 | 0.00 | 86 | 1015.7 |
| 20260506151422 | 54 | 11 | 3.0 | 8.0 | 0.00 | 0.00 | 0.00 | 86 | 1015.4 |
| 20260506150922 | 54 | 336 | 3.0 | 8.0 | 0.00 | 0.00 | 0.00 | 86 | 1015.2 |
| 20260506150423 | 54 | 0 | 3.0 | 7.0 | 0.00 | 0.00 | 0.00 | 86 | 1015.3 |
| 20260506145923 | 54 | 13 | 2.0 | 7.0 | 0.00 | 0.00 | 0.00 | 86 | 1015.1 |
| 20260506145516 | 54 | 5 | 5.0 | 13.0 | 0.00 | 0.00 | 0.00 | 86 | 1014.4 |
| 20260506145459 | 54 | 325 | 3.0 | 8.0 | 0.00 | 0.00 | 0.00 | 86 | 1014.8 |
| 20260506144422 | 54 | 355 | 5.0 | 13.0 | 0.00 | 0.00 | 0.00 | 85 | 1013.9 |
| 20260506143922 | 54 | 15 | 4.0 | 13.0 | 0.00 | 0.00 | 0.00 | 85 | 1014.4 |
| 20260506143422 | 54 | 11 | 4.0 | 10.0 | 0.00 | 0.00 | 0.00 | 86 | 1015.1 |
| 20260506142926 | 54 | 19 | 4.0 | 10.0 | 0.00 | 0.00 | 0.00 | 85 | 1015.2 |
| 20260506142422 | 54 | 26 | 4.0 | 10.0 | 0.00 | 0.00 | 0.00 | 86 | 1014.9 |